Regional Weather Roundup
Issued by NWS Wakefield, VA

Home | Current Version | Previous Version | Text Only | Print | Product List | Glossary Off
Versions: 1 2 3 4 5 6 7 8 9 10 11 12 13 14 15 16 17 18 19 20 21 22 23 24 25 26 27 28 29 30 31 32 33 34 35 36 37 38 39 40 41 42 43 44 45 46 47 48 49 50

000
ASUS41 KAKQ 230015
RWRAKQ

REGIONAL WEATHER ROUNDUP
NATIONAL WEATHER SERVICE WAKEFIELD VA
800 PM EDT SAT JUL 22 2017

Note: "fair" indicates few or no clouds below 12,000 feet with no
significant weather and/or obstructions to visibility. * = Denotes
station may not report precipitation (e.g., rain,snow,etc.),
thunder or fog.

VAZ042-051-052>054-056-230100-
NORTHERN VIRGINIA

CITY           SKY/WX    TMP DP  RH WIND       PRES   REMARKS
WASH NATIONAL  CLOUDY    77  71  82 CALM      29.79F
DULLES         CLOUDY    73  71  93 CALM      29.79F
FORT BELVOIR   NOT AVBL
QUANTICO       FAIR      78  73  84 NE5       29.80R
FREDERICKSBRG*   N/A     75  75 100 MISG      29.78S
STAFFORD*      FAIR      75  75  99 E6        29.84R
WARRENTON      FAIR      76  72  87 CALM      29.79F
CULPEPER*      FAIR      76  75  97 CALM      29.81S
MANASSAS*      FAIR      74  72  93 S3        29.80R
LEESBURG*      FAIR      73  73 100 CALM      29.81R
WINCHESTER     FAIR      70  70 100 W3        29.82R
FRONT ROYAL*   MOCLDY   N/A N/A N/A S3        29.81R
LURAY*         FAIR      77  73  88 CALM      29.84R
$$

VAZ048-049-060>072-079>083-230100-
CENTRAL AND SOUTH CENTRAL VIRGINIA

CITY           SKY/WX    TMP DP  RH WIND       PRES   REMARKS
RICHMOND       MOCLDY    95  68  41 W12       29.78R HX  99
CHESTERFIELD*  FAIR      92  72  51 SW3       29.80R HX  99
PETERSBURG*    FAIR      89  74  62 CALM      29.81R HX  97
HANOVER        MOCLDY    90  70  51 NE6       29.80R HX  95
TAPPAHANNOCK*  TSTM      77  59  54 N10G20    29.81R
QUINTON*       FAIR      92  76  60 S3        29.78R HX 104
CHARLOTTSVILLE FAIR      80  74  81 N5        29.82R
GORDONSVILLE*  MOCLDY    76  76  99 SW5       29.80R
ORANGE*        LGT RAIN  73  73 100 CALM      29.80S
LOUISA*        FAIR      79  70  73 CALM      29.79F
BUMPASS*       FAIR      80  73  76 CALM      29.79S
FARMVILLE*     FAIR      91  67  45 S6        29.79S
CREWE*         FAIR      92  67  42 SW3       29.81R HX  95
FORT PICKETT*  FAIR     N/A N/A N/A SW8       29.81R
CHASE CITY*    FAIR      91  73  54 CALM      29.82S HX  99
CLARKSVILLE*   FAIR      90  73  58 SW6       29.82F HX  98
SOUTH HILL*    FAIR      91  74  58 SW7       29.88S HX 100
LAWRENCEVILLE* FAIR      91  72  53 SW6       29.81S HX  98
EMPORIA*       FAIR      84  77  79 E7        29.83S
$$

VAZ088>098-230100-
SOUTHEAST VIRGINIA

CITY           SKY/WX    TMP DP  RH WIND       PRES   REMARKS
NORFOLK        FAIR      85  74  69 SW13      29.82R
VIRGINIA BEACH MOCLDY    85  72  65 SW5       29.83R
NORFOLK NAVAL  MOCLDY    84  73  69 SW9       29.83R
WEST POINT*    MOCLDY    87  73  64 SE8       29.80R
SALUDA*        MOCLDY    81  76  84 S10       29.80R
NEWPORT NEWS   FAIR      84  73  69 SW10      29.81S
LANGLEY AFB    NOT AVBL
FORT EUSTIS    NOT AVBL
WILLIAMSBURG*  FAIR      88  75  66 S9        29.81S HX  97
HR EXEC AP*    FAIR      79  73  83 SW10      29.81S
FRANKLIN*      FAIR      79  73  83 SW7       29.83S
US460-WAKEFLD  FAIR      85  75  72 S9        29.82R
$$

VAZ020-022-025-037-045-230100-
WEST CENTRAL AND SOUTHWEST VIRGINIA

CITY           SKY/WX    TMP DP  RH WIND       PRES   REMARKS
STAUNTON*      FAIR      80  72  75 N5        29.87R
WAYNESBORO*    CLOUDY    84  74  71 NW3       29.86R
HOT SPRINGS VA FAIR      77  55  47 W9        30.04R
LYNCHBURG      FAIR      87  73  62 S9        29.84R
DANVILLE       FAIR      85  71  63 SW8       29.85S
SOUTH BOSTON*  FAIR      90  72  55 SW6       29.83R HX  96
MARTINSVILLE   FAIR      77  68  72 CALM      29.91S
ROANOKE        FAIR      91  72  53 SW9       29.86R HX  98
BLACKSBURG     FAIR      88  66  47 SW5       29.96R
DUBLIN*        FAIR      88  60  38 W6        29.95R
MARION*        FAIR      85  66  52 W6        30.00R
HILLSVILLE*    FAIR      82  66  58 S6        29.98S
RICHLANDS*     FAIR      83  64  52 W7        30.01R
WISE*          FAIR      84  68  58 SW10      30.02R
ABINGDON*      FAIR      89  68  50 W7        29.95R
$$

MDZ021>025-VAZ099-100-230100-
SOUTHERN MARYLAND AND THE DELMARVA PENINSULA

CITY           SKY/WX    TMP DP  RH WIND       PRES   REMARKS
PATUXENT RIVER TSTM      75  71  87 S3        29.82R
BAY BRIDGE APT LGT RAIN  75  72  88 SW7       29.78F
LEONARDTOWN    FAIR      72  70  94 CALM      29.84F
DOVER          NOT AVBL
GEORGETOWN     FAIR      82  72  71 W6        29.79R
EASTON         RAIN      79  72  78 W9        29.82S
CAMBRIDGE      CLOUDY    73  72  94 SW5       29.79F FOG
SALISBURY      PTCLDY    79  75  89 W8        29.82R
OCEAN CITY     FAIR      79  76  90 SW5       29.80R
WALLOPS ISLAND FAIR      80  74  81 S9        29.81R
ACCOMACK*      TSTM      81  72  74 SW14G24   29.82R
$$

NCZ012>017-030>032-230100-
NORTH CENTRAL AND EASTERN NORTH CAROLINA

CITY           SKY/WX    TMP DP  RH WIND       PRES   REMARKS
ROANOKE RAPIDS FAIR      90  75  62 S9        29.84R HX 100
RALEIGH        FAIR      92  72  51 SW13      29.86S HX  99
ELIZABETH CITY FAIR      86  77  74 SW8       29.84R HX  97
AHOSKIE*         N/A     87  77  71 S3        29.85R HX  98
EDENTON*       FAIR      91  78  66 CALM      29.86R HX 105
CURRITUCK*     FAIR      89  77  68 SW8       29.84S HX 101
KILL DEVIL HLS FAIR      87  75  67 SW10      29.85R HX  95
MANTEO         FAIR      87  76  69 SW16      29.87R HX  96
CAPE HATTERAS  FAIR      80  75  84 SW14G20   29.91R
TARBORO*       NOT AVBL
GOLDSBORO      NOT AVBL
WASHINGTON     FAIR      89  75  64 S6        29.88R HX  99
GREENVILLE     FAIR      90  73  58 SW7       29.89R HX  98
NEW BERN       FAIR      84  74  71 S10       29.91R
WILMINGTON     FAIR      83  73  72 SW15      29.94R
$$

VAZ048-230100-
ELSEWHERE

CITY           SKY/WX    TMP DP  RH WIND       PRES   REMARKS
HARRISBURG PA  CLOUDY    80  71  74 W10       29.75R
BALTIMORE      CLOUDY    73  73 100 SW6       29.77F
ANNAPOLIS      LGT RAIN  72  50  46 W5        29.77F
ANDREWS AFB    LGT RAIN  72  70  94 SE5       29.79F
PHILADELPHIA   MOCLDY    82  72  71 E8        29.74S
HENDERSON NC   FAIR      88  70  55 SW9       29.84F
GREENSBORO     MOCLDY    82  73  74 SW6       29.88S
ROCKY MOUNT    FAIR      89  75  63 S10       29.86R HX  99
$$

VAZ100-230100-
MARINE

STATION/POSITION TIME  TEMP    WIND        PRES    WAVE   SWELL
                       AIR SEA DIR/SP/G            HT/PER HT/PER
                 (UTC) (F)     (DEG/KT/KT) (MB)    (FT/S) (FT/S)
BRANDYWINE LGT   2348          230/  9/ 10   N/A
CAPE MAY NJ      2348   78 77  210/  7/ 10 1007.4F
LEWES DE         2342   81 78  230/  2/  4 1007.8S
15NM E FENWICK I 2350   78 78  210/ 10/ 12 1008.6R   2/ 6   2/ 6
OCEAN-CITY-INLET 2342   76 74  220/  7/  8 1009.2R
WACHAPREAGUE VA  2342   84 86  220/ 10/ 18 1010.2R
THOMAS POINT MD  0000   76 85  250/ 11/ 12   N/A
GOOSES REEF MD   2350   78      10/ 10/ 12 1008.7F
COVE POINT MD    2348   76      20/  7/ 11 1009.8F
SOLOMONS ISLAND  2348          320/  1/  7   N/A
BISHOPS HEAD MD  2342   80     340/ 16/ 19 1010.2R
PINEY POINT MD   2348           20/  9/ 11   N/A
POTOMAC MD       2350   84      20/ 19/ 25 1008.6R
CAMBRIDGE MD     2342   73 89              1009.7R
LEWISETTA VA     2342   84 86   50/ 10/ 16 1009.4R
RAPPAHANNOCK LGT 2348          190/ 17/ 19 1010.6R
STINGRAY PT      2350   83     170/ 12/ 16 1007.9F
YORK RVR RNG VA  2342   85     160/  8/  9 1009.9R
YORKTOWN VA      2342   84 84  190/  8/ 12 1009.0R
JAMESTOWN VA     2350          210/ 14/ 17   N/A
DOMINION TERM VA 2342   83     210/ 14/ 18 1009.3S
KIPTOPEKE VA     2348           20/ 10/ 13   N/A
CHES BAY BRIDGE  2342   86 78  210/  9/ 12 1010.0R
CAPE HENRY VA    2348   83      50/  4/  4   N/A
WILLOUBY STN VA  2342   84     200/ 14/ 20 1009.6F
S CRANEY ISL VA  2342   83     210/ 11/ 16 1009.5S
CAPE HENRY BUOY  2330      71                N/A     2/ 6
1ST LANDING BUOY 2350   83                 1009.7R
64NM E OF VA BCH 2350   82 81  210/ 19/ 23 1010.3R   5/ 5   2/ 9
DUCK PIER NC     2348   87 60  200/ 14/ 17 1010.1R
44100 DUCK FRF   2305      74                N/A     3/ 6
44056 DUCK FRF   0000      64                N/A     2/10
OREGON INLET NC  2342   85 87  200/ 20/ 25 1011.5R
HATTERAS NC      2348   78 80  220/ 11/ 15 1012.8R
DIAMOND SHLS NC  2350   83 81  230/ 19/ 23 1012.5R   5/ 5   2/ 9
CAPE LOOKOUT NC  0000   82     220/ 10/ 13 1013.4R
$$



USA.gov is the U.S. government's official web portal to all federal, state and local government web resources and services.